TimeCDT,TemperatureF,Dew PointF,Humidity,Sea Level PressureIn,VisibilityMPH,Wind Direction,Wind SpeedMPH,Gust SpeedMPH,PrecipitationIn,Events,Conditions,WindDirDegrees,DateUTC
12:15 AM,35.6,33.8,93,29.66,10.0,SSE,15.0,18.4,N/A,,Overcast,160,2013-03-18 05:15:00
12:35 AM,35.6,32.0,87,29.66,10.0,South,13.8,23.0,N/A,,Overcast,170,2013-03-18 05:35:00
1:15 AM,37.4,33.8,87,29.66,10.0,South,13.8,-,N/A,,Overcast,170,2013-03-18 06:15:00
1:35 AM,37.4,33.8,87,29.66,10.0,South,13.8,-,N/A,,Overcast,180,2013-03-18 06:35:00
1:55 AM,37.4,35.6,93,29.66,10.0,SSW,11.5,18.4,N/A,,Overcast,210,2013-03-18 06:55:00
2:15 AM,37.4,35.6,93,29.66,4.0,SW,12.7,20.7,N/A,,Overcast,220,2013-03-18 07:15:00
2:35 AM,35.6,30.2,81,29.69,10.0,WNW,17.3,-,N/A,,Overcast,290,2013-03-18 07:35:00
2:55 AM,35.6,28.4,75,29.70,10.0,West,21.9,26.5,N/A,,Overcast,280,2013-03-18 07:55:00
3:15 AM,35.6,28.4,75,29.71,10.0,West,18.4,23.0,N/A,,Overcast,270,2013-03-18 08:15:00
3:35 AM,33.8,26.6,75,29.71,10.0,West,29.9,34.5,N/A,,Overcast,270,2013-03-18 08:35:00
3:55 AM,32.0,24.8,75,29.73,10.0,West,26.5,34.5,N/A,,Overcast,280,2013-03-18 08:55:00
4:15 AM,30.2,21.2,69,29.73,10.0,WNW,23.0,34.5,N/A,,Scattered Clouds,290,2013-03-18 09:15:00
4:35 AM,30.2,21.2,69,29.74,10.0,West,19.6,28.8,N/A,,Scattered Clouds,280,2013-03-18 09:35:00
4:55 AM,30.2,19.4,64,29.74,10.0,WNW,28.8,35.7,N/A,,Mostly Cloudy,290,2013-03-18 09:55:00
5:15 AM,28.4,17.6,64,29.75,10.0,WNW,32.2,44.9,N/A,,Partly Cloudy,290,2013-03-18 10:15:00
5:35 AM,26.6,15.8,64,29.77,10.0,WNW,29.9,44.9,N/A,,Clear,290,2013-03-18 10:35:00
5:55 AM,26.6,15.8,64,29.77,10.0,WNW,23.0,34.5,N/A,,Clear,290,2013-03-18 10:55:00
6:15 AM,24.8,12.2,59,29.77,10.0,WNW,31.1,40.3,N/A,,Clear,290,2013-03-18 11:15:00
6:35 AM,24.8,12.2,59,29.77,10.0,WNW,24.2,36.8,N/A,,Scattered Clouds,290,2013-03-18 11:35:00
6:55 AM,24.8,12.2,59,29.78,10.0,West,27.6,35.7,N/A,,Partly Cloudy,280,2013-03-18 11:55:00
7:15 AM,23.0,10.4,59,29.77,10.0,WNW,29.9,39.1,N/A,,Clear,290,2013-03-18 12:15:00
7:35 AM,23.0,10.4,59,29.78,10.0,WNW,27.6,31.1,N/A,,Clear,290,2013-03-18 12:35:00
7:55 AM,21.2,8.6,58,29.79,10.0,WNW,31.1,40.3,N/A,,Clear,290,2013-03-18 12:55:00
8:15 AM,21.2,10.4,63,29.80,10.0,West,21.9,39.1,N/A,,Clear,280,2013-03-18 13:15:00
8:35 AM,-9999,-9999,N/A,29.80,10.0,WNW,32.2,42.6,N/A,,Clear,300,2013-03-18 13:35:00
8:55 AM,-9999,-9999,N/A,29.81,10.0,WNW,31.1,41.4,N/A,,Clear,300,2013-03-18 13:55:00
9:15 AM,-9999,-9999,N/A,29.83,10.0,WNW,36.8,43.7,N/A,,Clear,300,2013-03-18 14:15:00
9:35 AM,21.2,6.8,54,29.85,10.0,WNW,32.2,40.3,N/A,,Partly Cloudy,290,2013-03-18 14:35:00
9:55 AM,21.2,5.0,50,29.86,10.0,WNW,35.7,43.7,N/A,,Partly Cloudy,300,2013-03-18 14:55:00
10:15 AM,21.2,6.8,54,29.86,10.0,NW,32.2,41.4,N/A,,Clear,310,2013-03-18 15:15:00
10:35 AM,21.2,6.8,54,29.88,10.0,WNW,32.2,40.3,N/A,,Partly Cloudy,300,2013-03-18 15:35:00
10:55 AM,21.2,3.2,46,29.88,10.0,WNW,33.4,43.7,N/A,,Partly Cloudy,300,2013-03-18 15:55:00
11:15 AM,21.2,3.2,46,29.89,10.0,WNW,26.5,41.4,N/A,,Partly Cloudy,300,2013-03-18 16:15:00
11:35 AM,21.2,5.0,50,29.90,10.0,NW,27.6,38.0,N/A,,Partly Cloudy,310,2013-03-18 16:35:00
11:55 AM,21.2,6.8,54,29.91,8.0,WNW,29.9,38.0,N/A,,Partly Cloudy,290,2013-03-18 16:55:00
12:15 PM,21.2,6.8,54,29.91,10.0,WNW,31.1,39.1,N/A,,Mostly Cloudy,290,2013-03-18 17:15:00
12:35 PM,23.0,5.0,46,29.91,10.0,WNW,32.2,39.1,N/A,,Scattered Clouds,290,2013-03-18 17:35:00
12:55 PM,23.0,6.8,50,29.91,10.0,WNW,31.1,36.8,N/A,,Mostly Cloudy,300,2013-03-18 17:55:00
1:15 PM,24.8,6.8,46,29.92,10.0,WNW,33.4,39.1,N/A,,Mostly Cloudy,290,2013-03-18 18:15:00
1:35 PM,24.8,6.8,46,29.92,10.0,WNW,29.9,39.1,N/A,,Mostly Cloudy,300,2013-03-18 18:35:00
1:55 PM,26.6,8.6,47,29.92,10.0,WNW,29.9,39.1,N/A,,Scattered Clouds,300,2013-03-18 18:55:00
2:15 PM,26.6,8.6,47,29.91,10.0,WNW,25.3,38.0,N/A,,Scattered Clouds,300,2013-03-18 19:15:00
2:35 PM,28.4,8.6,43,29.91,10.0,WNW,33.4,42.6,N/A,,Partly Cloudy,290,2013-03-18 19:35:00
2:55 PM,28.4,8.6,43,29.91,10.0,WNW,26.5,36.8,N/A,,Scattered Clouds,300,2013-03-18 19:55:00
3:15 PM,30.2,8.6,40,29.90,10.0,WNW,34.5,41.4,N/A,,Scattered Clouds,290,2013-03-18 20:15:00
3:35 PM,-9999,-9999,N/A,29.90,10.0,WNW,32.2,40.3,N/A,,Partly Cloudy,290,2013-03-18 20:35:00
3:55 PM,30.2,8.6,40,29.91,10.0,West,28.8,41.4,N/A,,Scattered Clouds,280,2013-03-18 20:55:00
4:15 PM,30.2,8.6,40,29.92,10.0,WNW,29.9,38.0,N/A,,Scattered Clouds,290,2013-03-18 21:15:00
4:35 PM,30.2,8.6,40,29.92,10.0,WNW,25.3,36.8,N/A,,Scattered Clouds,290,2013-03-18 21:35:00
4:55 PM,32.0,8.6,38,29.92,10.0,WNW,27.6,35.7,N/A,,Scattered Clouds,300,2013-03-18 21:55:00
5:15 PM,32.0,8.6,38,29.93,10.0,WNW,27.6,35.7,N/A,,Scattered Clouds,290,2013-03-18 22:15:00
5:35 PM,30.2,8.6,40,29.93,10.0,WNW,24.2,32.2,N/A,,Partly Cloudy,300,2013-03-18 22:35:00
5:55 PM,30.2,8.6,40,29.93,10.0,WNW,27.6,33.4,N/A,,Clear,290,2013-03-18 22:55:00
6:15 PM,30.2,10.4,44,29.94,10.0,WNW,21.9,27.6,N/A,,Clear,300,2013-03-18 23:15:00
6:35 PM,30.2,10.4,44,29.95,10.0,WNW,20.7,32.2,N/A,,Clear,300,2013-03-18 23:35:00
6:55 PM,28.4,10.4,47,29.95,10.0,NW,17.3,-,N/A,,Clear,320,2013-03-18 23:55:00
7:15 PM,28.4,10.4,47,29.96,10.0,NW,17.3,23.0,N/A,,Clear,310,2013-03-19 00:15:00
7:35 PM,26.6,10.4,51,29.97,10.0,NW,15.0,-,N/A,,Clear,320,2013-03-19 00:35:00
7:55 PM,24.8,10.4,54,29.98,10.0,NW,16.1,-,N/A,,Clear,310,2013-03-19 00:55:00
8:15 PM,24.8,12.2,59,29.99,10.0,NW,13.8,-,N/A,,Clear,320,2013-03-19 01:15:00
8:35 PM,24.8,12.2,59,30.00,10.0,NW,12.7,-,N/A,,Clear,320,2013-03-19 01:35:00
8:55 PM,23.0,12.2,63,30.01,10.0,NW,11.5,-,N/A,,Clear,320,2013-03-19 01:55:00
9:15 PM,21.2,12.2,68,30.01,10.0,NW,11.5,-,N/A,,Clear,320,2013-03-19 02:15:00
9:35 PM,21.2,12.2,68,30.02,10.0,NW,10.4,-,N/A,,Clear,320,2013-03-19 02:35:00
9:55 PM,21.2,10.4,63,30.01,10.0,NNW,11.5,-,N/A,,Clear,330,2013-03-19 02:55:00
10:15 PM,19.4,10.4,68,30.01,10.0,NNW,10.4,-,N/A,,Clear,340,2013-03-19 03:15:00
10:55 PM,19.4,10.4,68,30.02,10.0,NNW,10.4,-,N/A,,Clear,330,2013-03-19 03:55:00
11:15 PM,17.6,10.4,73,30.02,10.0,NW,3.5,-,N/A,,Clear,320,2013-03-19 04:15:00
11:35 PM,17.6,10.4,73,30.03,10.0,Calm,Calm,-,N/A,,Clear,0,2013-03-19 04:35:00
11:55 PM,17.6,12.2,79,30.05,10.0,West,6.9,-,N/A,,Clear,260,2013-03-19 04:55:00